Weather History for Huntsville Madison, AL

Change the Weather History Date:

Monday, September 24, 2012

  Actual Average (KHSV) Record (KHSV)
Temperature  
Mean Temperature 56 °F 71 °F  
Max Temperature 71 °F 82 °F 96 °F (1961)
Min Temperature 41 °F 59 °F 41 °F (1983)
Degree Days  
Heating Degree Days 9 1  
Month to date heating degree days 5  
Since 1 July heating degree days 5  
Cooling Degree Days 0 6  
Month to date cooling degree days 241  
Year to date cooling degree days 1836  
Growing Degree Days 6 (Base 50)    
Moisture  
Dew Point 44 °F    
Average Humidity 73    
Maximum Humidity 100    
Minimum Humidity 27    
Precipitation  
Precipitation 0.00 in 0.13 in 3.42 in (1997)
Month to date precipitation 2.95  
Year to date precipitation 39.27  
Snow  
Snow 0.00 in - - ()
Month to date snowfall  
Since 1 July snowfall  
Since 1 September snowfall  
Snow Depth -    
Sea Level Pressure  
Sea Level Pressure 30.20 in    
Wind  
Wind Speed 1 mph (NNE)    
Max Wind Speed 8 mph    
Max Gust Speed -    
Visibility 10 miles    
Events      
T = Trace of Precipitation, MM = Missing Value Source: NWS Daily Summary

Daily Weather History Graph

Daily Weather History Graph

Search for Another Location

Airport:

Trip Planner

Search our weather history database for the weather conditions in past years. The results will help you decide how hot, cold, wet, or windy it might be!

Date:

Astronomy

Sep. 24, 2012 Rise Set
Actual Time 6:36 AM CDT 6:39 PM CDT
Civil Twilight 6:10 AM CDT 7:04 PM CDT
Nautical Twilight 5:41 AM CDT 7:33 PM CDT
Astronomical Twilight 5:11 AM CDT 8:03 PM CDT
Moon 3:14 PM CDT (9/24) 1:03 AM CDT (9/24)
Length of Visible Light 12h 53m
Length of Day
12h 03m
Waxing Gibbous, 71% of the Moon is Illuminated
Sep 24
Waxing Gibbous
Sep 29
Full
Oct 8
Last Quarter
Oct 15
New
Oct 21
First Quarter

Hourly Weather History & Observations

Time (CDT) Temp. Dew Point Humidity Pressure Visibility Wind Dir Wind Speed Gust Speed Precip Events Conditions
12:15 AM 46.4 °F 44.6 °F 93% 30.23 in 10.0 mi Calm Calm - N/A   Clear
12:35 AM 46.4 °F 44.6 °F 93% 30.23 in 10.0 mi Calm Calm - N/A   Clear
12:55 AM 44.6 °F 44.6 °F 100% 30.23 in 10.0 mi Calm Calm - N/A   Clear
1:15 AM 44.6 °F 44.6 °F 100% 30.23 in 10.0 mi Calm Calm - N/A   Clear
1:35 AM 44.6 °F 44.6 °F 100% 30.23 in 10.0 mi Calm Calm - N/A   Clear
1:55 AM 44.6 °F 44.6 °F 100% 30.23 in 10.0 mi Calm Calm - N/A   Clear
2:15 AM 44.6 °F 42.8 °F 93% 30.23 in 10.0 mi Calm Calm - N/A   Clear
2:35 AM 44.6 °F 42.8 °F 93% 30.23 in 10.0 mi Calm Calm - N/A   Clear
2:55 AM 44.6 °F 42.8 °F 93% 30.23 in 10.0 mi Calm Calm - N/A   Clear
3:15 AM 42.8 °F 42.8 °F 100% 30.23 in 10.0 mi Calm Calm - N/A   Clear
3:35 AM 42.8 °F 42.8 °F 100% 30.23 in 10.0 mi Calm Calm - N/A   Clear
3:55 AM 42.8 °F 42.8 °F 100% 30.23 in 10.0 mi Calm Calm - N/A   Clear
4:15 AM 42.8 °F 42.8 °F 100% 30.23 in 10.0 mi Calm Calm - N/A   Clear
4:35 AM 42.8 °F 42.8 °F 100% 30.23 in 10.0 mi Calm Calm - N/A   Clear
4:55 AM 42.8 °F 42.8 °F 100% 30.24 in 10.0 mi Calm Calm - N/A   Clear
5:15 AM 41.0 °F 41.0 °F 100% 30.24 in 10.0 mi Calm Calm - N/A   Clear
5:35 AM 42.8 °F 42.8 °F 100% 30.24 in 10.0 mi Calm Calm - N/A   Clear
5:55 AM 41.0 °F 41.0 °F 100% 30.24 in 10.0 mi Calm Calm - N/A   Clear
6:15 AM 41.0 °F 41.0 °F 100% 30.25 in 10.0 mi Calm Calm - N/A   Clear
6:35 AM 42.8 °F 42.8 °F 100% 30.25 in 10.0 mi Calm Calm - N/A   Clear
6:55 AM 41.0 °F 41.0 °F 100% 30.26 in 10.0 mi Calm Calm - N/A   Clear
7:15 AM 42.8 °F 41.0 °F 93% 30.26 in 10.0 mi Calm Calm - N/A   Clear
7:35 AM 42.8 °F 42.8 °F 100% 30.27 in 10.0 mi Calm Calm - N/A   Clear
7:55 AM 46.4 °F 44.6 °F 93% 30.26 in 10.0 mi Calm Calm - N/A   Clear
8:15 AM 48.2 °F 44.6 °F 87% 30.26 in 10.0 mi North 3.5 mph - N/A   Clear
8:35 AM 50.0 °F 46.4 °F 87% 30.27 in 10.0 mi North 4.6 mph - N/A   Clear
8:55 AM 51.8 °F 46.4 °F 82% 30.27 in 10.0 mi Calm Calm - N/A   Clear
9:15 AM 55.4 °F 46.4 °F 72% 30.26 in 10.0 mi NNE 4.6 mph - N/A   Clear
9:55 AM 59.0 °F 42.8 °F 55% 30.26 in 10.0 mi NE 4.6 mph - N/A   Clear
10:15 AM 60.8 °F 42.8 °F 52% 30.26 in 10.0 mi NNE 5.8 mph - N/A   Clear
10:35 AM 60.8 °F 42.8 °F 52% 30.26 in 10.0 mi Calm Calm - N/A   Clear
10:55 AM 60.8 °F 42.8 °F 52% 30.26 in 10.0 mi Calm Calm - N/A   Clear
11:15 AM 62.6 °F 42.8 °F 48% 30.25 in 10.0 mi NNE 3.5 mph - N/A   Clear
11:35 AM 64.4 °F 44.6 °F 49% 30.25 in 10.0 mi Calm Calm - N/A   Clear
11:55 AM 64.4 °F 42.8 °F 45% 30.24 in 10.0 mi ENE 5.8 mph - N/A   Clear
12:15 PM 66.2 °F 41.0 °F 40% 30.23 in 10.0 mi East 8.1 mph - N/A   Clear
12:35 PM 68.0 °F 41.0 °F 37% 30.22 in 10.0 mi NNE 6.9 mph - N/A   Clear
12:55 PM 68.0 °F 41.0 °F 37% 30.22 in 10.0 mi Calm Calm - N/A   Clear
1:15 PM 69.8 °F 39.2 °F 33% 30.21 in 10.0 mi Calm Calm - N/A   Clear
1:35 PM 69.8 °F 39.2 °F 33% 30.20 in 10.0 mi NE 3.5 mph - N/A   Clear
1:55 PM 69.8 °F 39.2 °F 33% 30.19 in 10.0 mi Calm Calm - N/A   Clear
2:15 PM 69.8 °F 37.4 °F 31% 30.18 in 10.0 mi Calm Calm - N/A   Clear
2:35 PM 71.6 °F 41.0 °F 33% 30.17 in 10.0 mi Calm Calm - N/A   Clear
2:55 PM 71.6 °F 37.4 °F 29% 30.16 in 10.0 mi NNE 4.6 mph - N/A   Clear
3:15 PM 71.6 °F 35.6 °F 27% 30.15 in 10.0 mi NNW 3.5 mph - N/A   Clear
3:35 PM 71.6 °F 37.4 °F 29% 30.15 in 10.0 mi NE 3.5 mph - N/A   Clear
3:55 PM 71.6 °F 35.6 °F 27% 30.14 in 10.0 mi Calm Calm - N/A   Clear
4:15 PM 71.6 °F 41.0 °F 33% 30.14 in 10.0 mi West 3.5 mph - N/A   Clear
4:35 PM 71.6 °F 41.0 °F 33% 30.14 in 10.0 mi NW 4.6 mph - N/A   Clear
4:55 PM 71.6 °F 39.2 °F 31% 30.14 in 10.0 mi Calm Calm - N/A   Clear
5:15 PM 71.6 °F 37.4 °F 29% 30.14 in 10.0 mi Calm Calm - N/A   Clear
5:35 PM 71.6 °F 39.2 °F 31% 30.14 in 10.0 mi Calm Calm - N/A   Clear
5:55 PM 69.8 °F 48.2 °F 46% 30.13 in 7.0 mi Calm Calm - N/A   Clear
6:55 PM 60.8 °F 51.8 °F 72% 30.13 in 10.0 mi Calm Calm - N/A   Clear
7:15 PM 59.0 °F 51.8 °F 77% 30.14 in 10.0 mi Calm Calm - N/A   Clear
7:55 PM 55.4 °F 51.8 °F 88% 30.14 in 10.0 mi Calm Calm - N/A   Clear
8:15 PM 53.6 °F 51.8 °F 94% 30.14 in 10.0 mi Calm Calm - N/A   Clear
8:35 PM 55.4 °F 50.0 °F 82% 30.14 in 10.0 mi Calm Calm - N/A   Clear
8:55 PM 53.6 °F 51.8 °F 94% 30.14 in 10.0 mi Calm Calm - N/A   Clear
9:15 PM 53.6 °F 51.8 °F 94% 30.15 in 10.0 mi Calm Calm - N/A   Clear
9:35 PM 55.4 °F 51.8 °F 88% 30.15 in 10.0 mi Calm Calm - N/A   Clear
9:55 PM 51.8 °F 51.8 °F 100% 30.15 in 10.0 mi Calm Calm - N/A   Clear
10:15 PM 53.6 °F 51.8 °F 94% 30.15 in 10.0 mi Calm Calm - N/A   Clear
10:35 PM 53.6 °F 51.8 °F 94% 30.15 in 10.0 mi Calm Calm - N/A   Clear
10:55 PM 51.8 °F 50.0 °F 94% 30.15 in 10.0 mi Calm Calm - N/A   Clear
11:15 PM 57.2 °F 50.0 °F 77% 30.16 in 10.0 mi SSE 3.5 mph - N/A   Clear
11:55 PM 53.6 °F 50.0 °F 88% 30.14 in 10.0 mi Calm Calm - N/A   Clear